Location: Fort Wayne
(41.1310°N, 85.1290°W)
Time: 16:15:49
(UTC-05:00)

OPAL - Visible Passes

Search period start: 24 January 2017 00:00
Search period end: 03 February 2017 00:00
Orbit: 743 x 795 km, 100.2° (Epoch: 23 January)

Date Brightness Start Highest point End Pass type
(mag) Time Alt. Az. Time Alt. Az. Time Alt. Az.
24 Jan 9.6 05:15:58 10° N 05:17:01 16° N 05:17:01 16° N visible
25 Jan 10.0 04:40:33 10° NNE 04:41:15 14° NNE 04:41:15 14° NNE visible
25 Jan 9.4 06:20:30 10° NNW 06:21:33 14° NNW 06:21:33 14° NNW visible
26 Jan 9.3 05:44:12 10° N 05:45:48 19° N 05:45:48 19° N visible
27 Jan 9.4 05:08:27 10° NNE 05:10:02 20° NNE 05:10:02 20° NNE visible
27 Jan 9.5 06:50:01 10° NW 06:50:20 11° NW 06:50:20 11° NW visible
28 Jan 9.9 04:33:09 10° NNE 04:34:17 16° NNE 04:34:17 16° NNE visible
28 Jan 9.1 06:12:42 10° N 06:14:36 18° NNW 06:14:36 18° NNW visible
29 Jan 10.5 03:58:31 10° NE 03:58:33 10° NE 03:58:33 10° NE visible
29 Jan 9.0 05:36:35 10° N 05:38:51 25° N 05:38:51 25° N visible
30 Jan 9.2 05:00:58 10° NNE 05:03:07 25° NNE 05:03:07 25° NNE visible
30 Jan 9.3 06:41:44 10° NNW 06:43:25 14° NW 06:43:25 14° NW visible
31 Jan 9.8 04:25:49 10° NNE 04:27:23 19° NE 04:27:23 19° NE visible
31 Jan 8.8 06:04:58 10° N 06:07:42 23° NNW 06:07:42 23° NNW visible
01 Feb 10.5 03:51:28 10° NE 03:51:40 11° NE 03:51:40 11° NE visible
01 Feb 8.6 05:29:01 10° N 05:31:58 33° N 05:31:58 33° N visible
02 Feb 9.0 04:53:31 10° NNE 04:56:15 31° NNE 04:56:15 31° NNE visible
02 Feb 9.0 06:33:44 10° NNW 06:36:34 17° NW 06:36:34 17° NW visible
